Find Starlink 11088

NORAD ID: 59709 Int'l Des: 2024-088 Owner: SPXS Country: US Constellation: starlink operational
LEOCIRCULAR

Live-Position

3D-Globus wird geladen...

Über Starlink 11088

Beschreibung wird geladen...

Nächste Überflüge

Passes for default location (London). Set your location on the main map for personalized predictions.

Höhenverlauf

Loading altitude history...

Zweizeiliger Elementsatz

1 59709U 24088B 26126.15492678 -.00057031 00000-0 -47038-3 0 9994
2 59709 53.1573 43.2941 0000852 71.6800 288.4311 15.69646035115296
Epoch: 6. Mai 2026 • Age: 6 hours

Aktueller Status

Höhe 360.0 km
Geschwindigkeit 7.70 km/s
Subsatellitenpunkt 18.61°N, 43.33°E
Startdatum 10. Mai 2024
Alter 1.9 years
Typ internet

Technische Details

Klassifizierung Payload
Masse 960.00 kg
Trockenmasse 910.00 kg
Gesamtmasse 960.00 kg
Länge 0.30 m
Durchmesser 4.10 m
Spannweite 29.00 m
Form Box + pan
Hersteller SPXS
Bus-Typ Starlink V2MD
Phasenstatus In Orbit
Besitzer/Staat SPXS/US

Most Searched